Weather History for Massena, NY

Change the Weather History Date:

Thursday, February 21, 2013

  Actual Average Record
Temperature  
Mean Temperature 13 °F 19 °F  
Max Temperature 20 °F 30 °F 62 °F (1953)
Min Temperature 6 °F 9 °F -21 °F (1950)
Degree Days  
Heating Degree Days 52 46  
Month to date heating degree days 1015 1012  
Since 1 July heating degree days 5223 5675  
Moisture  
Dew Point 4 °F    
Average Humidity 76    
Maximum Humidity 84    
Minimum Humidity 67    
Precipitation  
Precipitation T in 0.06 in 0.62 in (2014)
Month to date precipitation 0.36 1.28  
Year to date precipitation 1.80 3.46  
Sea Level Pressure  
Sea Level Pressure 30.12 in    
Wind  
Wind Speed 12 mph (WSW)    
Max Wind Speed 21 mph    
Max Gust Speed 28 mph    
Visibility 5 miles    
Events Snow    
T = Trace of Precipitation, MM = Missing Value Source: NWS Daily Summary

Daily Weather History Graph

Daily Weather History Graph

Search for Another Location

Airport:

Trip Planner

Search our weather history database for the weather conditions in past years. The results will help you decide how hot, cold, wet, or windy it might be!

Date:

Astronomy

Feb. 21, 2013 Rise Set
Actual Time 6:50 AM EST 5:36 PM EST
Civil Twilight 6:20 AM EST 6:06 PM EST
Nautical Twilight 5:46 AM EST 6:40 PM EST
Astronomical Twilight 5:12 AM EST 7:14 PM EST
Moon 1:42 PM EST (2/21) 4:00 AM EST (2/21)
Length of Visible Light 11h 45m
Length of Day
10h 45m
Waxing Gibbous, 83% of the Moon is Illuminated
Feb 21
Waxing Gibbous
Feb 25
Full
Mar 4
Last Quarter
Mar 11
New
Mar 19
First Quarter

Hourly Weather History & Observations

Time (EST) Temp. Windchill Dew Point Humidity Pressure Visibility Wind Dir Wind Speed Gust Speed Precip Events Conditions
12:16 AM 10.4 °F -7.2 °F 5.0 °F 79% 29.92 in 2.0 mi West 17.3 mph 24.2 mph 0.00 in Snow Light Snow
12:36 AM 10.4 °F -6.6 °F 3.2 °F 73% 29.92 in 3.0 mi West 16.1 mph 26.5 mph 0.00 in Snow Light Snow
12:53 AM 10.0 °F -7.1 °F 3.9 °F 76% 29.95 in 3.0 mi West 16.1 mph 23.0 mph 0.00 in Snow Light Snow
1:16 AM 8.6 °F -9.5 °F 3.2 °F 79% 29.93 in 2.0 mi West 17.3 mph 26.5 mph 0.00 in Snow Light Snow
1:33 AM 8.6 °F -8.3 °F 3.2 °F 79% 29.93 in 3.0 mi West 15.0 mph 23.0 mph 0.00 in Snow Light Snow
1:53 AM 9.0 °F -7.3 °F 3.0 °F 77% 29.96 in 3.0 mi West 13.8 mph 25.3 mph 0.00 in Snow Light Snow
2:53 AM 7.0 °F -11.0 °F 1.0 °F 77% 29.98 in 5.0 mi West 16.1 mph 21.9 mph 0.00 in Snow Light Snow
3:53 AM 7.0 °F -9.1 °F -0.0 °F 73% 29.99 in 4.0 mi West 12.7 mph - 0.00 in Snow Light Snow
4:53 AM 6.1 °F -11.6 °F -0.0 °F 76% 30.01 in 5.0 mi West 15.0 mph - 0.00 in Snow Light Snow
5:26 AM 6.8 °F -8.6 °F -0.4 °F 72% 30.00 in 2.5 mi WSW 11.5 mph 20.7 mph 0.00 in Snow Light Snow
5:35 AM 6.8 °F -10.7 °F -0.4 °F 72% 30.00 in 2.5 mi West 15.0 mph - 0.00 in Snow Light Snow
5:53 AM 6.8 °F -10.7 °F -0.4 °F 72% 30.01 in 2.0 mi West 15.0 mph - N/A Snow Light Snow
6:08 AM 6.8 °F -8.6 °F -0.4 °F 72% 30.01 in 3.0 mi West 11.5 mph - 0.00 in Snow Light Snow
6:53 AM 6.1 °F -9.5 °F -0.9 °F 73% 30.06 in 6.0 mi WSW 11.5 mph - 0.00 in Snow Light Snow
7:09 AM 6.8 °F -10.7 °F -0.4 °F 72% 30.04 in 1.8 mi WSW 15.0 mph 23.0 mph 0.00 in Snow Light Snow
7:14 AM 6.8 °F -8.6 °F -0.4 °F 72% 30.04 in 0.8 mi WSW 11.5 mph 20.7 mph 0.00 in Snow Light Snow
7:21 AM 6.8 °F -7.8 °F -0.4 °F 72% 30.04 in 0.8 mi WSW 10.4 mph - 0.00 in Snow Light Snow
7:53 AM 6.1 °F -9.5 °F 1.0 °F 80% 30.09 in 0.8 mi WSW 11.5 mph - 0.00 in Snow Light Snow
8:00 AM 6.8 °F -10.7 °F 1.4 °F 79% 30.06 in 1.5 mi WSW 15.0 mph - 0.00 in Snow Light Snow
8:10 AM 6.8 °F -9.3 °F 1.4 °F 79% 30.07 in 2.0 mi WSW 12.7 mph - 0.00 in Snow Light Snow
8:22 AM 6.8 °F -10.0 °F -0.4 °F 72% 30.07 in 1.5 mi WSW 13.8 mph 20.7 mph 0.00 in Snow Light Snow
8:29 AM 6.8 °F -9.3 °F -0.4 °F 72% 30.07 in 1.0 mi WSW 12.7 mph - 0.00 in Snow Light Snow
8:33 AM 6.8 °F -10.0 °F 1.4 °F 79% 30.07 in 0.8 mi WSW 13.8 mph - 0.00 in Snow Light Snow
8:40 AM 6.8 °F -9.3 °F 1.4 °F 79% 30.07 in 1.2 mi West 12.7 mph 19.6 mph 0.00 in Snow Light Snow
8:50 AM 6.8 °F -8.6 °F 1.4 °F 79% 30.08 in 1.8 mi WSW 11.5 mph - 0.00 in Snow Light Snow
8:53 AM 7.0 °F -9.1 °F 1.0 °F 77% 30.11 in 1.8 mi WSW 12.7 mph 19.6 mph 0.00 in Snow Light Snow
8:58 AM 8.6 °F -6.3 °F 1.4 °F 73% 30.08 in 2.0 mi WSW 11.5 mph 19.6 mph 0.00 in Snow Light Snow
9:22 AM 8.6 °F -8.9 °F 1.4 °F 73% 30.09 in 3.0 mi WSW 16.1 mph 23.0 mph 0.00 in Snow Light Snow
9:32 AM 8.6 °F -8.3 °F 1.4 °F 73% 30.09 in 2.5 mi WSW 15.0 mph 21.9 mph 0.00 in Snow Light Snow
9:53 AM 9.0 °F -7.3 °F 1.0 °F 70% 30.13 in 2.0 mi WSW 13.8 mph 24.2 mph 0.00 in Snow Light Snow
10:04 AM 8.6 °F -8.3 °F 1.4 °F 73% 30.10 in 1.2 mi WSW 15.0 mph 23.0 mph N/A Snow Light Snow
10:31 AM 10.4 °F -4.1 °F 3.2 °F 73% 30.11 in 2.0 mi West 11.5 mph 20.7 mph 0.00 in Snow Light Snow
10:53 AM 10.0 °F -4.5 °F 3.0 °F 73% 30.15 in 6.0 mi WSW 11.5 mph - 0.00 in Snow Light Snow
11:19 AM 10.4 °F -4.8 °F 3.2 °F 73% 30.12 in 9.0 mi WSW 12.7 mph - 0.00 in   Overcast
11:53 AM 12.0 °F -3.4 °F 3.9 °F 70% 30.17 in 4.0 mi WSW 13.8 mph - 0.00 in Snow Light Snow
12:23 PM 12.2 °F -3.1 °F 5.0 °F 73% 30.14 in 1.8 mi WSW 13.8 mph - 0.00 in Snow Light Snow
12:35 PM 12.2 °F -4.8 °F 5.0 °F 73% 30.14 in 1.2 mi SW 17.3 mph 24.2 mph 0.00 in Snow Light Snow
12:53 PM 14.0 °F -0.2 °F 5.0 °F 67% 30.18 in 1.2 mi WSW 12.7 mph 23.0 mph 0.00 in Snow Light Snow
1:00 PM 14.0 °F 0.5 °F 6.8 °F 73% 30.15 in 2.0 mi WSW 11.5 mph - 0.00 in Snow Light Snow
1:10 PM 14.0 °F -0.8 °F 6.8 °F 73% 30.15 in 5.0 mi WSW 13.8 mph - 0.00 in Snow Light Snow
1:25 PM 15.8 °F 0.9 °F 6.8 °F 68% 30.16 in 9.0 mi West 15.0 mph - 0.00 in   Overcast
1:53 PM 16.0 °F 3.6 °F 7.0 °F 68% 30.19 in 10.0 mi WSW 10.4 mph 20.7 mph 0.00 in   Overcast
2:20 PM 17.6 °F 5.0 °F 8.6 °F 68% 30.17 in 10.0 mi WSW 11.5 mph 18.4 mph N/A   Overcast
2:36 PM 17.6 °F 5.7 °F 8.6 °F 68% 30.18 in 10.0 mi WSW 10.4 mph - N/A   Overcast
2:53 PM 18.0 °F 5.4 °F 9.0 °F 68% 30.22 in 10.0 mi SW 11.5 mph - N/A   Overcast
3:53 PM 19.9 °F 7.9 °F 10.0 °F 65% 30.24 in 10.0 mi SW 11.5 mph - N/A   Overcast
4:53 PM 19.0 °F 7.5 °F 10.0 °F 68% 30.26 in 10.0 mi SSW 10.4 mph - N/A   Partly Cloudy
5:53 PM 19.0 °F 7.5 °F 10.0 °F 68% 30.28 in 10.0 mi SW 10.4 mph - N/A   Mostly Cloudy
6:53 PM 19.0 °F 8.2 °F 10.9 °F 71% 30.31 in 10.0 mi SW 9.2 mph - N/A   Overcast
7:53 PM 19.9 °F 9.3 °F 12.0 °F 71% 30.31 in 10.0 mi SSW 9.2 mph - N/A   Overcast
8:42 PM 19.4 °F 7.9 °F 12.2 °F 74% 30.32 in 10.0 mi SW 10.4 mph - N/A   Overcast
8:53 PM 19.9 °F 7.9 °F 12.0 °F 71% 30.37 in 10.0 mi SSW 11.5 mph - N/A   Overcast
9:53 PM 19.9 °F 7.9 °F 12.9 °F 74% 30.41 in 8.0 mi SW 11.5 mph - 0.00 in   Overcast
10:05 PM 19.4 °F 6.0 °F 12.2 °F 74% 30.39 in 10.0 mi SW 13.8 mph - N/A   Overcast
10:53 PM 19.9 °F 8.6 °F 15.1 °F 81% 30.43 in 10.0 mi SW 10.4 mph - N/A   Overcast
11:53 PM 19.9 °F 10.1 °F 15.1 °F 81% 30.45 in 10.0 mi SSW 8.1 mph - N/A   Overcast